GLG8377 SEQM-SKBO

Flight info

Callsign GLG8377
Flight time 1h 37m
Altitude 36000
Route ARNOK3A ARNOK UP533 BOKAN DCT ESARO/N0460F370 DCT GIR GIR4E
Aircraft A320/M-SDE3FGHIRWY/LB1

Departure

Time 2026-05-04 23:38
Airport Mariscal Sucre International Airport (SEQM)

Arrival

Time 2026-05-05 01:16
Airport El Dorado International Airport (SKBO)
Time Latitude Longitude Altitude Speed Heading
2026-05-04 23:23 -0.12326 -78.35928 7842 ft 0 kts 267°
2026-05-04 23:27 -0.12326 -78.35926 7842 ft 2 kts 267°
2026-05-04 23:27 -0.12326 -78.35909 7841 ft 3 kts 267°
2026-05-04 23:27 -0.12325 -78.35892 7837 ft 3 kts 267°
2026-05-04 23:27 -0.12324 -78.35874 7837 ft 3 kts 267°
2026-05-04 23:28 -0.12321 -78.35857 7835 ft 2 kts 212°
2026-05-04 23:28 -0.12313 -78.35853 7833 ft 0 kts 180°
2026-05-04 23:30 -0.12318 -78.35853 7834 ft 1 kts 180°
2026-05-04 23:30 -0.12347 -78.35849 7838 ft 6 kts 159°
2026-05-04 23:30 -0.12363 -78.35799 7836 ft 9 kts 91°
2026-05-04 23:31 -0.12360 -78.35723 7835 ft 12 kts 85°
2026-05-04 23:31 -0.12360 -78.35633 7844 ft 14 kts 109°
2026-05-04 23:31 -0.12451 -78.35613 7843 ft 15 kts 178°
2026-05-04 23:31 -0.12551 -78.35610 7852 ft 14 kts 178°
2026-05-04 23:32 -0.12645 -78.35605 7858 ft 13 kts 177°
2026-05-04 23:32 -0.12733 -78.35600 7863 ft 12 kts 176°
2026-05-04 23:32 -0.12818 -78.35596 7866 ft 13 kts 178°
2026-05-04 23:32 -0.12911 -78.35594 7869 ft 14 kts 177°
2026-05-04 23:33 -0.13010 -78.35589 7873 ft 14 kts 177°
2026-05-04 23:33 -0.13102 -78.35586 7878 ft 12 kts 179°
2026-05-04 23:33 -0.13170 -78.35582 7881 ft 8 kts 174°
2026-05-04 23:33 -0.13214 -78.35578 7883 ft 4 kts 174°
2026-05-04 23:34 -0.13253 -78.35575 7884 ft 8 kts 176°
2026-05-04 23:34 -0.13326 -78.35571 7885 ft 13 kts 179°
2026-05-04 23:34 -0.13437 -78.35569 7886 ft 19 kts 179°
2026-05-04 23:34 -0.13569 -78.35564 7890 ft 17 kts 178°
2026-05-04 23:35 -0.13669 -78.35560 7894 ft 12 kts 178°
2026-05-04 23:35 -0.13732 -78.35558 7896 ft 7 kts 178°
2026-05-04 23:35 -0.13794 -78.35556 7897 ft 13 kts 178°
2026-05-04 23:35 -0.13919 -78.35550 7899 ft 22 kts 178°
2026-05-04 23:36 -0.14064 -78.35544 7909 ft 19 kts 176°
2026-05-04 23:36 -0.14164 -78.35537 7911 ft 10 kts 178°
2026-05-04 23:36 -0.14231 -78.35525 7922 ft 11 kts 151°
2026-05-04 23:36 -0.14253 -78.35452 7915 ft 13 kts 87°
2026-05-04 23:37 -0.14241 -78.35369 7921 ft 9 kts 41°
2026-05-04 23:37 -0.14207 -78.35367 7914 ft 0 kts 351°
2026-05-04 23:37 -0.14204 -78.35368 7913 ft 6 kts 350°
2026-05-04 23:37 -0.13913 -78.35383 7901 ft 77 kts 358°
2026-05-04 23:38 -0.13165 -78.35411 7882 ft 135 kts 358°
2026-05-04 23:38 -0.12055 -78.35449 7856 ft 181 kts 359°
2026-05-04 23:38 -0.10812 -78.35499 8534 ft 182 kts 358°
2026-05-04 23:38 -0.09544 -78.35590 9260 ft 184 kts 352°
2026-05-04 23:39 -0.08301 -78.35894 9859 ft 185 kts 343°
2026-05-04 23:39 -0.07078 -78.36307 10322 ft 186 kts 341°
2026-05-04 23:39 -0.05852 -78.36743 10741 ft 188 kts 342°
2026-05-04 23:39 -0.04613 -78.37178 11146 ft 191 kts 342°
2026-05-04 23:40 -0.03304 -78.37628 11317 ft 209 kts 342°
2026-05-04 23:40 -0.01858 -78.38114 11445 ft 229 kts 342°
2026-05-04 23:40 -0.00287 -78.38636 11565 ft 252 kts 342°
2026-05-04 23:40 0.01454 -78.39212 11724 ft 272 kts 342°
2026-05-04 23:41 0.03236 -78.39800 12380 ft 268 kts 343°
2026-05-04 23:41 0.05022 -78.40388 12957 ft 273 kts 343°
2026-05-04 23:41 0.06834 -78.40981 13602 ft 275 kts 343°
2026-05-04 23:41 0.08667 -78.41578 14154 ft 279 kts 343°
2026-05-04 23:42 0.10526 -78.42182 14681 ft 282 kts 344°
2026-05-04 23:42 0.12398 -78.42790 15231 ft 284 kts 344°
2026-05-04 23:42 0.14285 -78.43403 15810 ft 286 kts 344°
2026-05-04 23:42 0.16146 -78.44050 16346 ft 288 kts 341°
2026-05-04 23:43 0.18018 -78.44791 16906 ft 291 kts 340°
2026-05-04 23:43 0.19893 -78.45574 17476 ft 294 kts 340°
2026-05-04 23:43 0.21887 -78.46057 17793 ft 302 kts
2026-05-04 23:43 0.23980 -78.45691 17920 ft 313 kts 26°
2026-05-04 23:44 0.25798 -78.44442 18067 ft 326 kts 46°
2026-05-04 23:44 0.27422 -78.42783 18188 ft 342 kts 47°
2026-05-04 23:44 0.29109 -78.41034 18321 ft 357 kts 47°
2026-05-04 23:44 0.30864 -78.39211 18471 ft 372 kts 47°
2026-05-04 23:45 0.32667 -78.37345 18612 ft 384 kts 47°
2026-05-04 23:45 0.34543 -78.35418 18937 ft 389 kts 47°
2026-05-04 23:45 0.36442 -78.33477 19343 ft 392 kts 46°
2026-05-04 23:45 0.38357 -78.31525 19777 ft 394 kts 46°
2026-05-04 23:46 0.40281 -78.29565 20197 ft 396 kts 46°
2026-05-04 23:46 0.42214 -78.27597 20627 ft 398 kts 46°
2026-05-04 23:46 0.44161 -78.25610 21039 ft 401 kts 46°
2026-05-04 23:46 0.46115 -78.23612 21484 ft 403 kts 46°
2026-05-04 23:47 0.48048 -78.21632 21859 ft 405 kts 46°
2026-05-04 23:47 0.50021 -78.19613 22250 ft 407 kts 46°
2026-05-04 23:47 0.52006 -78.17580 22642 ft 410 kts 46°
2026-05-04 23:47 0.54003 -78.15538 23016 ft 412 kts 46°
2026-05-04 23:48 0.56008 -78.13487 23391 ft 414 kts 46°
2026-05-04 23:48 0.58028 -78.11421 23755 ft 417 kts 46°
2026-05-04 23:48 0.60058 -78.09341 24104 ft 419 kts 46°
2026-05-04 23:48 0.62096 -78.07252 24388 ft 421 kts 46°
2026-05-04 23:49 0.64118 -78.05182 24675 ft 423 kts 46°
2026-05-04 23:49 0.66177 -78.03078 24956 ft 425 kts 46°
2026-05-04 23:49 0.68246 -78.00965 25261 ft 426 kts 46°
2026-05-04 23:49 0.70322 -77.98843 25556 ft 428 kts 46°
2026-05-04 23:50 0.72408 -77.96713 25835 ft 430 kts 46°
2026-05-04 23:50 0.74503 -77.94573 26176 ft 431 kts 47°
2026-05-04 23:50 0.76602 -77.92426 26465 ft 433 kts 47°
2026-05-04 23:50 0.78710 -77.90270 26753 ft 434 kts 47°
2026-05-04 23:51 0.80804 -77.88148 27032 ft 436 kts 45°
2026-05-04 23:51 0.83101 -77.86150 27316 ft 439 kts 42°
2026-05-04 23:51 0.85428 -77.84171 27600 ft 440 kts 42°
2026-05-04 23:51 0.87766 -77.82185 27879 ft 442 kts 42°
2026-05-04 23:52 0.90111 -77.80189 28182 ft 444 kts 42°
2026-05-04 23:52 0.92465 -77.78184 28500 ft 445 kts 42°
2026-05-04 23:52 0.94827 -77.76171 28769 ft 447 kts 42°
2026-05-04 23:52 0.97194 -77.74154 29016 ft 449 kts 42°
2026-05-04 23:53 0.99572 -77.72127 29257 ft 450 kts 42°
2026-05-04 23:53 1.01960 -77.70095 29490 ft 452 kts 42°
2026-05-04 23:53 1.04327 -77.68084 29717 ft 453 kts 42°
2026-05-04 23:53 1.06729 -77.66041 29940 ft 455 kts 42°
2026-05-04 23:54 1.09145 -77.63987 30172 ft 456 kts 42°
2026-05-04 23:54 1.11563 -77.61928 30393 ft 458 kts 43°
2026-05-04 23:54 1.13992 -77.59861 30589 ft 459 kts 42°
2026-05-04 23:54 1.16428 -77.57788 30798 ft 460 kts 42°
2026-05-04 23:55 1.18862 -77.55714 31048 ft 460 kts 42°
2026-05-04 23:55 1.21292 -77.53642 31270 ft 459 kts 42°
2026-05-04 23:55 1.26110 -77.49543 31843 ft 457 kts 42°
2026-05-04 23:56 1.28533 -77.47482 32114 ft 456 kts 42°
2026-05-04 23:56 1.30948 -77.45427 32392 ft 456 kts 42°
2026-05-04 23:56 1.33355 -77.43377 32666 ft 454 kts 42°
2026-05-04 23:56 1.35759 -77.41331 32917 ft 454 kts 42°
2026-05-04 23:57 1.38158 -77.39286 33198 ft 453 kts 42°
2026-05-04 23:57 1.40550 -77.37246 33488 ft 452 kts 42°
2026-05-04 23:57 1.42941 -77.35208 33885 ft 451 kts 42°
2026-05-04 23:57 1.45328 -77.33174 34189 ft 450 kts 42°
2026-05-04 23:58 1.47680 -77.31170 34450 ft 450 kts 42°
2026-05-04 23:58 1.50060 -77.29143 34673 ft 449 kts 42°
2026-05-04 23:58 1.52441 -77.27118 34889 ft 450 kts 42°
2026-05-04 23:58 1.54822 -77.25093 35118 ft 449 kts 42°
2026-05-04 23:59 1.57198 -77.23069 35360 ft 449 kts 42°
2026-05-04 23:59 1.59573 -77.21046 35629 ft 447 kts 42°
2026-05-04 23:59 1.61935 -77.19033 35890 ft 446 kts 42°
2026-05-04 23:59 1.64262 -77.17049 36083 ft 445 kts 42°
2026-05-05 00:00 1.66619 -77.15040 36175 ft 445 kts 42°
2026-05-05 00:00 1.71327 -77.11037 36200 ft 444 kts 42°
2026-05-05 00:01 1.76027 -77.07031 36212 ft 444 kts 42°
2026-05-05 00:01 1.80726 -77.03024 36191 ft 444 kts 41°
2026-05-05 00:02 1.85392 -76.99043 36187 ft 444 kts 42°
2026-05-05 00:02 1.90102 -76.95037 36187 ft 445 kts 41°
2026-05-05 00:03 1.94819 -76.91027 36186 ft 445 kts 42°
2026-05-05 00:03 1.99531 -76.87009 36191 ft 446 kts 42°
2026-05-05 00:04 2.04251 -76.82982 36191 ft 446 kts 42°
2026-05-05 00:04 2.08936 -76.78984 36193 ft 446 kts 42°
2026-05-05 00:05 2.13661 -76.74956 36194 ft 446 kts 42°
2026-05-05 00:05 2.18386 -76.70931 36187 ft 446 kts 42°
2026-05-05 00:06 2.23110 -76.66901 36170 ft 446 kts 42°
2026-05-05 00:06 2.27803 -76.62888 36183 ft 447 kts 42°
2026-05-05 00:07 2.32537 -76.58847 36176 ft 448 kts 41°
2026-05-05 00:07 2.37287 -76.54805 36176 ft 448 kts 41°
2026-05-05 00:08 2.42042 -76.50762 36176 ft 449 kts 41°
2026-05-05 00:08 2.46756 -76.46735 36183 ft 449 kts 42°
2026-05-05 00:09 2.51502 -76.42678 36191 ft 449 kts 42°
2026-05-05 00:09 2.56247 -76.38623 36188 ft 449 kts 42°
2026-05-05 00:10 2.60995 -76.34571 36188 ft 449 kts 41°
2026-05-05 00:10 2.65752 -76.30523 36185 ft 449 kts 41°
2026-05-05 00:11 2.70482 -76.26497 36174 ft 450 kts 41°
2026-05-05 00:11 2.75243 -76.22426 36178 ft 450 kts 41°
2026-05-05 00:12 2.80006 -76.18358 36183 ft 450 kts 41°
2026-05-05 00:12 2.84741 -76.14312 36176 ft 451 kts 41°
2026-05-05 00:13 2.89447 -76.10176 36182 ft 450 kts 44°
2026-05-05 00:13 2.93961 -76.05855 36181 ft 449 kts 45°
2026-05-05 00:14 2.98430 -76.01494 36175 ft 449 kts 45°
2026-05-05 00:14 3.02906 -75.97196 36174 ft 449 kts 45°
2026-05-05 00:15 3.07444 -75.92903 36173 ft 449 kts 44°
2026-05-05 00:15 3.11989 -75.88608 36146 ft 449 kts 45°
2026-05-05 00:16 3.16524 -75.84304 36150 ft 449 kts 45°
2026-05-05 00:16 3.21054 -75.79999 36149 ft 449 kts 45°
2026-05-05 00:17 3.25554 -75.75717 36087 ft 449 kts 44°
2026-05-05 00:17 3.30086 -75.71405 36087 ft 450 kts 44°
2026-05-05 00:18 3.34622 -75.67096 36091 ft 450 kts 44°
2026-05-05 00:18 3.39164 -75.62783 36026 ft 450 kts 44°
2026-05-05 00:19 3.43674 -75.58498 36043 ft 450 kts 44°
2026-05-05 00:19 3.48208 -75.54179 36044 ft 450 kts 44°
2026-05-05 00:20 3.52743 -75.49865 36047 ft 450 kts 44°
2026-05-05 00:20 3.57283 -75.45548 36004 ft 450 kts 44°
2026-05-05 00:21 3.61792 -75.41263 36008 ft 450 kts 45°
2026-05-05 00:21 3.66332 -75.36944 36007 ft 450 kts 45°
2026-05-05 00:22 3.70872 -75.32622 36006 ft 451 kts 44°
2026-05-05 00:22 3.75419 -75.28289 36000 ft 452 kts 44°
2026-05-05 00:23 3.79943 -75.23980 36005 ft 452 kts 44°
2026-05-05 00:23 3.84505 -75.19637 36026 ft 453 kts 44°
2026-05-05 00:24 3.89074 -75.15289 36031 ft 453 kts 44°
2026-05-05 00:24 3.91357 -75.13118 35832 ft 453 kts 44°
2026-05-05 00:24 3.93666 -75.10920 34861 ft 461 kts 44°
2026-05-05 00:24 3.95981 -75.08717 34341 ft 458 kts 44°
2026-05-05 00:25 3.98284 -75.06522 33711 ft 457 kts 44°
2026-05-05 00:25 4.00553 -75.04358 32943 ft 458 kts 44°
2026-05-05 00:25 4.02865 -75.02152 32116 ft 460 kts 44°
2026-05-05 00:25 4.05176 -74.99946 31302 ft 456 kts 45°
2026-05-05 00:26 4.07461 -74.97769 30332 ft 451 kts 44°
2026-05-05 00:26 4.09721 -74.95618 29282 ft 445 kts 45°
2026-05-05 00:26 4.11945 -74.93502 28298 ft 438 kts 45°
2026-05-05 00:26 4.14150 -74.91401 27709 ft 435 kts 45°
2026-05-05 00:27 4.16353 -74.89355 27195 ft 430 kts 40°
2026-05-05 00:27 4.18780 -74.87697 26688 ft 427 kts 30°
2026-05-05 00:27 4.21491 -74.86514 26168 ft 425 kts 19°
2026-05-05 00:27 4.24368 -74.85869 25651 ft 423 kts
2026-05-05 00:28 4.27279 -74.85496 25142 ft 420 kts
2026-05-05 00:28 4.30166 -74.85127 24638 ft 416 kts
2026-05-05 00:28 4.33059 -74.84752 23719 ft 425 kts
2026-05-05 00:28 4.35983 -74.84368 23145 ft 421 kts
2026-05-05 00:29 4.38864 -74.83991 22735 ft 412 kts 10°
2026-05-05 00:29 4.41678 -74.83625 22510 ft 405 kts 10°
2026-05-05 00:29 4.44462 -74.83261 22260 ft 401 kts 10°
2026-05-05 00:29 4.47193 -74.82904 22009 ft 391 kts 10°
2026-05-05 00:30 4.49855 -74.82554 21762 ft 382 kts 10°
2026-05-05 00:30 4.52436 -74.82212 21522 ft 378 kts 10°
2026-05-05 00:30 4.55035 -74.81864 21278 ft 376 kts 10°
2026-05-05 00:30 4.57623 -74.81517 21066 ft 374 kts 10°
2026-05-05 00:31 4.60202 -74.81175 20830 ft 373 kts 10°
2026-05-05 00:31 4.62789 -74.80832 20098 ft 379 kts 10°
2026-05-05 00:31 4.65376 -74.80488 19589 ft 368 kts 10°
2026-05-05 00:31 4.67846 -74.80167 19320 ft 350 kts 10°
2026-05-05 00:32 4.70231 -74.79857 18786 ft 342 kts 10°
2026-05-05 00:32 4.72573 -74.79543 18167 ft 337 kts 13°
2026-05-05 00:32 4.74740 -74.78843 17501 ft 329 kts 30°
2026-05-05 00:32 4.76590 -74.77556 16840 ft 321 kts 46°
2026-05-05 00:33 4.77967 -74.75809 16451 ft 318 kts 62°
2026-05-05 00:33 4.78851 -74.73802 16218 ft 314 kts 70°
2026-05-05 00:33 4.79637 -74.71767 15977 ft 312 kts 70°
2026-05-05 00:33 4.80422 -74.69744 15740 ft 311 kts 70°
2026-05-05 00:34 4.81208 -74.67725 15507 ft 310 kts 70°
2026-05-05 00:34 4.81988 -74.65713 15271 ft 309 kts 70°
2026-05-05 00:34 4.82761 -74.63705 15068 ft 308 kts 70°
2026-05-05 00:34 4.83530 -74.61701 14832 ft 308 kts 70°
2026-05-05 00:35 4.84289 -74.59730 14602 ft 307 kts 70°
2026-05-05 00:35 4.85058 -74.57735 14355 ft 307 kts 70°
2026-05-05 00:35 4.85826 -74.55742 14121 ft 306 kts 70°
2026-05-05 00:35 4.86593 -74.53756 13880 ft 305 kts 70°
2026-05-05 00:36 4.87356 -74.51775 13641 ft 304 kts 70°
2026-05-05 00:36 4.88117 -74.49800 13447 ft 303 kts 70°
2026-05-05 00:36 4.88874 -74.47834 13225 ft 302 kts 70°
2026-05-05 00:36 4.89622 -74.45898 13076 ft 293 kts 70°
2026-05-05 00:37 4.90310 -74.44006 12948 ft 284 kts 78°
2026-05-05 00:37 4.90373 -74.42104 12843 ft 275 kts 103°
2026-05-05 00:37 4.89628 -74.40351 12698 ft 275 kts 127°
2026-05-05 00:37 4.88280 -74.39041 12570 ft 267 kts 139°
2026-05-05 00:38 4.86881 -74.37856 12459 ft 258 kts 134°
2026-05-05 00:38 4.85775 -74.36483 12325 ft 250 kts 125°
2026-05-05 00:38 4.84783 -74.35084 12235 ft 242 kts 125°
2026-05-05 00:38 4.83801 -74.33762 12142 ft 230 kts 126°
2026-05-05 00:39 4.82853 -74.32510 12013 ft 221 kts 126°
2026-05-05 00:39 4.81936 -74.31299 11758 ft 215 kts 126°
2026-05-05 00:39 4.81053 -74.30132 11496 ft 211 kts 126°
2026-05-05 00:39 4.80177 -74.28976 11243 ft 206 kts 126°
2026-05-05 00:40 4.79317 -74.27840 10997 ft 203 kts 126°
2026-05-05 00:40 4.78472 -74.26723 10757 ft 200 kts 126°
2026-05-05 00:40 4.77638 -74.25620 10522 ft 197 kts 126°
2026-05-05 00:40 4.76811 -74.24528 10290 ft 196 kts 126°
2026-05-05 00:41 4.75994 -74.23449 10031 ft 191 kts 126°
2026-05-05 00:41 4.75208 -74.22412 9787 ft 183 kts 126°
2026-05-05 00:41 4.74454 -74.21415 9537 ft 176 kts 126°
2026-05-05 00:41 4.73726 -74.20453 9290 ft 172 kts 126°
2026-05-05 00:42 4.73002 -74.19499 9178 ft 178 kts 125°
2026-05-05 00:42 4.72258 -74.18517 9907 ft 178 kts 126°
2026-05-05 00:42 4.71512 -74.17522 10380 ft 178 kts 126°
2026-05-05 00:42 4.70763 -74.16534 10793 ft 178 kts 126°
2026-05-05 00:43 4.70009 -74.15540 11185 ft 183 kts 125°
2026-05-05 00:43 4.69192 -74.14462 11313 ft 205 kts 126°
2026-05-05 00:43 4.68289 -74.13268 11433 ft 226 kts 126°
2026-05-05 00:43 4.67134 -74.12109 11557 ft 249 kts 152°
2026-05-05 00:44 4.65411 -74.11821 12082 ft 260 kts 189°
2026-05-05 00:44 4.63744 -74.12561 12700 ft 268 kts 213°
2026-05-05 00:44 4.62295 -74.13766 12939 ft 272 kts 225°
2026-05-05 00:44 4.61348 -74.15396 13008 ft 273 kts 251°
2026-05-05 00:45 4.60921 -74.17226 13008 ft 274 kts 263°
2026-05-05 00:45 4.60819 -74.19134 13009 ft 274 kts 268°
2026-05-05 00:45 4.60725 -74.21045 13008 ft 275 kts 266°
2026-05-05 00:45 4.60603 -74.22961 12999 ft 276 kts 266°
2026-05-05 00:46 4.60476 -74.24878 12996 ft 275 kts 266°
2026-05-05 00:46 4.60355 -74.26793 12990 ft 276 kts 266°
2026-05-05 00:46 4.60241 -74.28710 12985 ft 275 kts 266°
2026-05-05 00:46 4.60130 -74.30624 12976 ft 275 kts 266°
2026-05-05 00:47 4.60023 -74.32515 12970 ft 276 kts 266°
2026-05-05 00:47 4.59915 -74.34431 12966 ft 275 kts 266°
2026-05-05 00:47 4.59809 -74.36346 12927 ft 275 kts 266°
2026-05-05 00:47 4.59705 -74.38256 12917 ft 274 kts 266°
2026-05-05 00:48 4.59602 -74.40159 12903 ft 273 kts 266°
2026-05-05 00:48 4.59501 -74.42054 12894 ft 272 kts 267°
2026-05-05 00:48 4.59398 -74.43950 12884 ft 272 kts 266°
2026-05-05 00:48 4.59512 -74.45833 12871 ft 271 kts 287°
2026-05-05 00:49 4.60355 -74.47502 12869 ft 269 kts 311°
2026-05-05 00:49 4.61768 -74.48659 12865 ft 266 kts 336°
2026-05-05 00:49 4.63521 -74.49194 12868 ft 264 kts 351°
2026-05-05 00:49 4.65327 -74.49566 12864 ft 265 kts 350°
2026-05-05 00:50 4.67134 -74.49946 12863 ft 265 kts 350°
2026-05-05 00:50 4.68940 -74.50329 12802 ft 265 kts 350°
2026-05-05 00:50 4.70746 -74.50712 12806 ft 265 kts 350°
2026-05-05 00:50 4.72553 -74.51095 12805 ft 265 kts 350°
2026-05-05 00:51 4.74360 -74.51476 12805 ft 265 kts 350°
2026-05-05 00:51 4.76166 -74.51856 12805 ft 265 kts 350°
2026-05-05 00:51 4.77972 -74.52237 12804 ft 266 kts 350°
2026-05-05 00:51 4.79789 -74.52621 12805 ft 268 kts 350°
2026-05-05 00:52 4.81592 -74.53003 12812 ft 269 kts 350°
2026-05-05 00:52 4.83425 -74.53351 12805 ft 267 kts 359°
2026-05-05 00:52 4.85233 -74.53115 12793 ft 261 kts 24°
2026-05-05 00:52 4.86758 -74.52175 12793 ft 257 kts 47°
2026-05-05 00:53 4.87768 -74.50726 12794 ft 254 kts 69°
2026-05-05 00:53 4.88401 -74.49072 12845 ft 254 kts 71°
2026-05-05 00:53 4.89032 -74.47412 12844 ft 255 kts 70°
2026-05-05 00:53 4.89668 -74.45751 12844 ft 255 kts 70°
2026-05-05 00:54 4.90297 -74.44113 12850 ft 255 kts 72°
2026-05-05 00:54 4.90618 -74.42379 12856 ft 253 kts 91°
2026-05-05 00:54 4.90330 -74.40689 12861 ft 240 kts 111°
2026-05-05 00:54 4.89542 -74.39252 12878 ft 234 kts 127°
2026-05-05 00:55 4.88549 -74.37956 12884 ft 234 kts 126°
2026-05-05 00:55 4.87565 -74.36659 12891 ft 233 kts 126°
2026-05-05 00:55 4.86600 -74.35376 12934 ft 225 kts 126°
2026-05-05 00:55 4.85680 -74.34154 12965 ft 218 kts 126°
2026-05-05 00:56 4.84763 -74.32939 12613 ft 217 kts 126°
2026-05-05 00:56 4.83872 -74.31763 12348 ft 212 kts 126°
2026-05-05 00:56 4.82988 -74.30596 12075 ft 208 kts 126°
2026-05-05 00:56 4.82117 -74.29450 11794 ft 205 kts 126°
2026-05-05 00:57 4.81263 -74.28326 11529 ft 201 kts 126°
2026-05-05 00:57 4.80421 -74.27218 11275 ft 198 kts 126°
2026-05-05 00:57 4.79591 -74.26123 11022 ft 197 kts 126°
2026-05-05 00:57 4.78765 -74.25033 10768 ft 196 kts 126°
2026-05-05 00:58 4.77947 -74.23951 10514 ft 192 kts 126°
2026-05-05 00:58 4.77164 -74.22914 10265 ft 186 kts 126°
2026-05-05 00:58 4.76401 -74.21901 10002 ft 178 kts 126°
2026-05-05 00:58 4.75669 -74.20932 9775 ft 171 kts 126°
2026-05-05 00:59 4.74954 -74.19988 9547 ft 168 kts 126°
2026-05-05 00:59 4.74247 -74.19053 9334 ft 168 kts 125°
2026-05-05 00:59 4.73497 -74.18066 9839 ft 181 kts 126°
2026-05-05 00:59 4.72745 -74.17062 10514 ft 179 kts 125°
2026-05-05 01:00 4.72001 -74.16061 10950 ft 179 kts 125°
2026-05-05 01:00 4.71249 -74.15063 11389 ft 179 kts 126°
2026-05-05 01:00 4.70471 -74.14041 11555 ft 197 kts 126°
2026-05-05 01:00 4.69597 -74.12891 11685 ft 217 kts 126°
2026-05-05 01:01 4.68640 -74.11630 11812 ft 237 kts 126°
2026-05-05 01:01 4.67825 -74.10152 12127 ft 248 kts 100°
2026-05-05 01:01 4.67999 -74.08447 12706 ft 253 kts 65°
2026-05-05 01:01 4.69107 -74.07057 12952 ft 259 kts 40°
2026-05-05 01:02 4.70591 -74.06043 12996 ft 259 kts 31°
2026-05-05 01:02 4.72296 -74.05491 12999 ft 261 kts
2026-05-05 01:02 4.74118 -74.05481 13001 ft 263 kts 356°
2026-05-05 01:02 4.75907 -74.05773 13000 ft 264 kts 352°
2026-05-05 01:03 4.77724 -74.06056 13000 ft 264 kts 354°
2026-05-05 01:03 4.79547 -74.06301 13011 ft 264 kts 354°
2026-05-05 01:03 4.81327 -74.06759 13011 ft 266 kts 338°
2026-05-05 01:03 4.82901 -74.07744 13011 ft 269 kts 319°
2026-05-05 01:04 4.84106 -74.09185 13011 ft 271 kts 306°
2026-05-05 01:04 4.86262 -74.12295 13011 ft 272 kts 306°
2026-05-05 01:04 4.87333 -74.13822 13011 ft 272 kts 306°
2026-05-05 01:05 4.88422 -74.15371 13004 ft 271 kts 306°
2026-05-05 01:05 4.89509 -74.16914 13000 ft 271 kts 307°
2026-05-05 01:05 4.90596 -74.18454 12998 ft 271 kts 307°
2026-05-05 01:05 4.91683 -74.19997 12994 ft 271 kts 306°
2026-05-05 01:06 4.92770 -74.21543 12955 ft 271 kts 306°
2026-05-05 01:06 4.93857 -74.23092 12901 ft 271 kts 307°
2026-05-05 01:06 4.94942 -74.24640 12903 ft 272 kts 306°
2026-05-05 01:06 4.96014 -74.26167 12905 ft 271 kts 307°
2026-05-05 01:07 4.97097 -74.27710 12900 ft 271 kts 306°
2026-05-05 01:07 4.98183 -74.29257 12902 ft 271 kts 306°
2026-05-05 01:07 4.99269 -74.30800 12878 ft 271 kts 306°
2026-05-05 01:07 5.00352 -74.32342 12877 ft 270 kts 306°
2026-05-05 01:08 5.01205 -74.34015 12878 ft 272 kts 284°
2026-05-05 01:08 5.01312 -74.35897 12829 ft 272 kts 259°
2026-05-05 01:08 5.00636 -74.37644 12826 ft 269 kts 233°
2026-05-05 01:08 4.99326 -74.38946 12827 ft 265 kts 208°
2026-05-05 01:09 4.97662 -74.39633 12847 ft 262 kts 194°
2026-05-05 01:09 4.95912 -74.40158 12848 ft 263 kts 194°
2026-05-05 01:09 4.94161 -74.40682 12845 ft 262 kts 192°
2026-05-05 01:09 4.92369 -74.40891 12848 ft 259 kts 174°
2026-05-05 01:10 4.90651 -74.40559 12869 ft 244 kts 157°
2026-05-05 01:10 4.89180 -74.39788 12884 ft 236 kts 142°
2026-05-05 01:10 4.87921 -74.38748 12887 ft 234 kts 138°
2026-05-05 01:10 4.86691 -74.37669 12683 ft 233 kts 130°
2026-05-05 01:11 4.85742 -74.36446 12608 ft 218 kts 126°
2026-05-05 01:11 4.84845 -74.35235 12595 ft 215 kts 125°
2026-05-05 01:11 4.83968 -74.34017 12437 ft 216 kts 124°
2026-05-05 01:11 4.83076 -74.32810 12225 ft 215 kts 125°
2026-05-05 01:12 4.82168 -74.31605 11862 ft 217 kts 126°
2026-05-05 01:12 4.81265 -74.30412 11578 ft 213 kts 126°
2026-05-05 01:12 4.80380 -74.29243 11308 ft 208 kts 126°
2026-05-05 01:12 4.79515 -74.28101 11071 ft 203 kts 126°
2026-05-05 01:13 4.78671 -74.26985 10830 ft 199 kts 126°
2026-05-05 01:13 4.77848 -74.25897 10593 ft 197 kts 126°
2026-05-05 01:13 4.77024 -74.24809 10361 ft 194 kts 126°
2026-05-05 01:13 4.76214 -74.23739 10116 ft 191 kts 126°
2026-05-05 01:14 4.75425 -74.22697 9872 ft 184 kts 126°
2026-05-05 01:14 4.74674 -74.21706 9646 ft 174 kts 126°
2026-05-05 01:14 4.73958 -74.20760 9403 ft 168 kts 126°
2026-05-05 01:14 4.73251 -74.19827 9148 ft 167 kts 125°
2026-05-05 01:15 4.72559 -74.18912 8909 ft 164 kts 126°
2026-05-05 01:15 4.71862 -74.17998 8653 ft 166 kts 126°
2026-05-05 01:15 4.71187 -74.17086 8431 ft 164 kts 127°
2026-05-05 01:15 4.70535 -74.16236 8363 ft 131 kts 127°
2026-05-05 01:16 4.70106 -74.15671 8361 ft 53 kts 128°
2026-05-05 01:16 4.70034 -74.15560 8360 ft 13 kts 97°
2026-05-05 01:16 4.70030 -74.15539 8360 ft 3 kts 124°
2026-05-05 01:16 4.69980 -74.15495 8361 ft 17 kts 139°
2026-05-05 01:17 4.69881 -74.15381 8363 ft 23 kts 127°
2026-05-05 01:17 4.69789 -74.15253 8362 ft 23 kts 126°
2026-05-05 01:17 4.69726 -74.15107 8361 ft 24 kts 100°
2026-05-05 01:17 4.69704 -74.14975 8361 ft 13 kts 96°
2026-05-05 01:18 4.69704 -74.14967 8361 ft 0 kts 91°
2026-05-05 01:18 4.69708 -74.14944 8361 ft 9 kts 70°
2026-05-05 01:18 4.69780 -74.14885 8361 ft 18 kts 31°
2026-05-05 01:18 4.69882 -74.14811 8361 ft 13 kts 37°
2026-05-05 01:19 4.69968 -74.14746 8361 ft 20 kts 36°
2026-05-05 01:19 4.70074 -74.14667 8361 ft 8 kts 48°
2026-05-05 01:19 4.70118 -74.14622 8361 ft 10 kts 33°
2026-05-05 01:19 4.70187 -74.14583 8361 ft 13 kts 31°
2026-05-05 01:20 4.70261 -74.14526 8361 ft 15 kts 39°
2026-05-05 01:20 4.70348 -74.14463 8361 ft 16 kts 33°
2026-05-05 01:20 4.70404 -74.14410 8361 ft 7 kts 145°
2026-05-05 01:20 4.70367 -74.14372 8361 ft 8 kts 123°
2026-05-05 01:21 4.70336 -74.14319 8361 ft 9 kts 127°
2026-05-05 01:21 4.70293 -74.14265 8361 ft 10 kts 129°
2026-05-05 01:21 4.70251 -74.14214 8361 ft 5 kts 129°
2026-05-05 01:21 4.70221 -74.14200 8361 ft 5 kts 194°
2026-05-05 01:22 4.70190 -74.14224 8361 ft 7 kts 219°
2026-05-05 01:22 4.70140 -74.14209 8361 ft 11 kts 128°
2026-05-05 01:22 4.70106 -74.14189 8361 ft 3 kts 213°
2026-05-05 01:22 4.70084 -74.14203 8361 ft 4 kts 216°
2026-05-05 01:23 4.70056 -74.14225 8361 ft 5 kts 217°
2026-05-05 01:23 4.70056 -74.14226 8361 ft 0 kts 217°